This demonstration page uses our WeatherBlox Daily Observations layout. Learn more.

40.92945, -100.16068

Hourly Observations for June 2, 2018

Temp ( °F °C ) Dew Point ( °F °C ) Humidity (%) Winds ( mph kmh ) Pressure ( in mb ) Visibility ( mi km ) Precip ( " mm )
12:15 am 00:15 Mostly Cloudy 75 23.7 61 15.9 62 62 NNW 13 20 29.68 1005 10 16.0934 0 0
12:35 am 00:35 Partly Cloudy 72 22 63 17.1 74 74 NNE 15 24 29.68 1005 10 16.0934 0 0
12:55 am 00:55 Mostly Cloudy with Nearby Thunderstorms 72 22.2 63 17.3 74 74 NE 14 22 29.71 1006 10 16.0934 0 0
1:15 am 01:15 Partly Cloudy 71 21.4 64 17.7 80 80 N 7 11 29.8 1009 10 16.0934 0 0
1:35 am 01:35 Partly Cloudy 69 20.7 63 17.3 81 81 N 12 19 29.8 1009 10 16.0934 0 0
1:55 am 01:55 Clear 68 20.2 60 15.4 74 74 N 17 28 29.8 1009 10 16.0934 0 0
2:15 am 02:15 Mostly Cloudy 67 19.6 59 15 75 75 N 8 13 29.8 1009 10 16.0934 0 0
2:35 am 02:35 Partly Cloudy 66 19 58 14.6 76 76 N 12 19 29.8 1009 10 16.0934 0 0
2:55 am 02:55 Clear 66 18.9 57 14.1 74 74 NNW 10 17 29.85 1011 10 16.0934 0 0
3:15 am 03:15 Clear 65 18.6 56 13.6 73 73 N 3 6 29.85 1011 10 16.0934 0 0
3:35 am 03:35 Clear 64 18 57 14 78 78 NNW 10 17 29.88 1012 10 16.0934 0 0
3:55 am 03:55 Clear 64 17.7 55 13 74 74 NW 13 20 29.91 1013 10 16.0934 0 0
4:15 am 04:15 Partly Cloudy 64 17.7 55 12.5 72 72 NNW 10 17 29.91 1013 10 16.0934 0 0
4:35 am 04:35 Cloudy 64 17.5 53 11.8 69 69 NNW 17 28 29.91 1013 10 16.0934 0 0
4:55 am 04:55 Cloudy 62 16.7 53 11.9 73 73 NNW 7 11 29.91 1013 10 16.0934 0 0
5:15 am 05:15 Cloudy 62 16.5 53 11.8 74 74 NW 10 17 29.94 1014 10 16.0934 0 0
5:35 am 05:35 Cloudy 61 16 54 12.1 78 78 NW 8 13 29.97 1015 10 16.0934 0 0
5:55 am 05:55 Partly Cloudy 59 15.1 53 11.4 79 79 NW 8 13 30 1016 10 16.0934 0 0
6:15 am 06:15 Sunny 59 15 52 11 77 77 NW 9 15 30 1016 10 16.0934 0 0
6:35 am 06:35 Sunny 59 14.8 51 10.8 77 77 NNW 10 17 30 1016 10 16.0934 0 0
6:55 am 06:55 Sunny 58 14.5 51 10.8 79 79 NNW 8 13 30 1016 10 16.0934 0 0
7:15 am 07:15 Sunny 58 14.7 52 11 79 79 NW 8 13 30.03 1017 10 16.0934 0 0
7:35 am 07:35 Sunny 59 15.2 52 11.1 77 77 NW 9 15 30.03 1017 10 16.0934 0 0
7:55 am 07:55 Sunny 60 15.8 52 11 73 73 NW 12 19 30.06 1018 10 16.0934 0 0
8:15 am 08:15 Sunny 62 16.5 52 11.3 72 72 NNW 10 17 30.06 1018 10 16.0934 0 0
8:35 am 08:35 Sunny 63 17.2 53 11.6 70 70 NNW 15 24 30.09 1019 10 16.0934 0 0
8:55 am 08:55 Sunny 64 17.5 53 11.4 68 68 NNW 16 26 30.09 1019 10 16.0934 0 0
9:15 am 09:15 Sunny 65 18.1 52 11.2 64 64 NNW 17 28 30.06 1018 10 16.0934 0 0
9:35 am 09:35 Sunny 65 18.5 53 11.4 63 63 NNW 17 28 30.09 1019 10 16.0934 0 0
9:55 am 09:55 Sunny 66 19 52 11 60 60 NNW 13 20 30.09 1019 10 16.0934 0 0
10:15 am 10:15 Sunny 68 19.8 53 11.6 59 59 NNW 12 19 30.09 1019 10 16.0934 0 0
10:35 am 10:35 Sunny 68 20 52 11 56 56 NNW 16 26 30.06 1018 10 16.0934 0 0
10:55 am 10:55 Sunny 69 20.5 52 11.3 56 56 NNW 16 26 30.06 1018 10 16.0934 0 0
11:15 am 11:15 Sunny 70 20.9 53 11.8 56 56 NNW 18 30 30.06 1018 10 16.0934 0 0
11:35 am 11:35 Sunny 70 21 52 10.9 53 53 NNW 20 31 30.06 1018 10 16.0934 0 0
11:55 am 11:55 Sunny 70 21.2 49 9.7 48 48 NW 16 26 30.03 1017 10 16.0934 0 0
12:15 pm 12:15 Sunny 71 21.9 51 10.6 49 49 NW 18 30 30.03 1017 10 16.0934 0 0
12:35 pm 12:35 Sunny 72 22 50 10.1 47 47 NNW 21 33 30.03 1017 10 16.0934 0 0
12:55 pm 12:55 Sunny 72 22.2 50 10.1 46 46 NW 18 30 30.03 1017 10 16.0934 0 0
1:15 pm 13:15 Sunny 73 22.5 50 10.1 45 45 NNW 18 30 30.03 1017 10 16.0934 0 0
1:35 pm 13:35 Sunny 73 22.7 51 10.5 46 46 N 18 30 30.03 1017 10 16.0934 0 0
1:55 pm 13:55 Sunny 73 23 52 10.9 47 47 NW 16 26 30.03 1017 10 16.0934 0 0
2:15 pm 14:15 Sunny 74 23.3 50 10.2 44 44 NNW 20 31 30.03 1017 10 16.0934 0 0
2:35 pm 14:35 Sunny 74 23.4 51 10.3 44 44 NNW 18 30 30.03 1017 10 16.0934 0 0
2:55 pm 14:55 Sunny 74 23.5 51 10.4 44 44 NNW 16 26 30.03 1017 10 16.0934 0 0
3:15 pm 15:15 Sunny 75 23.7 47 8.5 38 38 NNW 22 35 30.03 1017 10 16.0934 0 0
3:35 pm 15:35 Sunny 74 23.6 47 8.2 37 37 NNW 20 31 30 1016 10 16.0934 0 0
3:55 pm 15:55 Sunny 75 24 48 8.9 38 38 N 21 33 30 1016 10 16.0934 0 0
4:15 pm 16:15 Sunny 75 24.1 48 8.9 38 38 NNW 15 24 30 1016 10 16.0934 0 0
4:35 pm 16:35 Sunny 76 24.3 47 8.6 37 37 NNW 15 24 29.97 1015 10 16.0934 0 0
4:55 pm 16:55 Sunny 76 24.3 47 8.1 36 36 NW 18 30 29.97 1015 10 16.0934 0 0
5:15 pm 17:15 Sunny 76 24.2 46 7.5 34 34 NNW 14 22 30 1016 10 16.0934 0 0
5:35 pm 17:35 Sunny 76 24.3 44 6.8 33 33 NW 16 26 29.97 1015 10 16.0934 0 0
5:55 pm 17:55 Sunny 76 24.2 45 7 33 33 NW 14 22 30 1016 10 16.0934 0 0
6:15 pm 18:15 Sunny 76 24.2 42 5.4 30 30 NNW 17 28 30 1016 10 16.0934 0 0
6:35 pm 18:35 Sunny 75 24.1 43 6.2 32 32 NW 15 24 30 1016 10 16.0934 0 0
6:55 pm 18:55 Sunny 75 23.7 44 6.4 33 33 NW 17 28 30 1016 10 16.0934 0 0
7:15 pm 19:15 Sunny 74 23.5 44 6.7 34 34 NNW 14 22 30 1016 10 16.0934 0 0
7:35 pm 19:35 Sunny 74 23.5 43 5.9 32 32 NW 10 17 30 1016 10 16.0934 0 0
7:55 pm 19:55 Sunny 73 22.7 44 6.6 35 35 NW 9 15 30.03 1017 10 16.0934 0 0
8:15 pm 20:15 Sunny 70 21.2 46 7.9 42 42 NW 8 13 30.03 1017 10 16.0934 0 0
8:35 pm 20:35 Sunny 68 19.8 49 9.4 51 51 NW 7 11 30.06 1018 10 16.0934 0 0
8:55 pm 20:55 Sunny 66 18.7 50 10.2 58 58 NNW 6 9 30.06 1018 10 16.0934 0 0
9:15 pm 21:15 Clear 64 17.9 51 10.3 61 61 NNW 6 9 30.06 1018 10 16.0934 0 0
9:35 pm 21:35 Clear 62 16.6 50 10 65 65 NNW 7 11 30.09 1019 10 16.0934 0 0
9:55 pm 21:55 Clear 60 15.4 49 9.4 68 68 NNW 7 11 30.12 1020 10 16.0934 0 0
10:15 pm 22:15 Clear 59 15 50 9.9 72 72 NW 6 9 30.12 1020 10 16.0934 0 0
10:35 pm 22:35 Clear 60 15.3 50 10.1 71 71 WNW 3 6 30.12 1020 10 16.0934 0 0
10:55 pm 22:55 Clear 57 14.1 49 9.6 75 75 W 7 11 30.15 1021 10 16.0934 0 0
11:15 pm 23:15 Clear 57 13.8 48 9.1 73 73 W 7 11 30.15 1021 10 16.0934 0 0
11:35 pm 23:35 Clear 58 14.2 48 9.1 72 72 W 5 7 30.15 1021 10 16.0934 0 0
11:55 pm 23:55 Clear 55 12.6 49 9.4 81 81 WNW 5 7 30.18 1022 10 16.0934 0 0

Powered by AerisWeather